TimeCST,TemperatureF,Dew PointF,Humidity,Sea Level PressureIn,VisibilityMPH,Wind Direction,Wind SpeedMPH,Gust SpeedMPH,PrecipitationIn,Events,Conditions,WindDirDegrees,DateUTC
12:55 AM,11.5,9.1,90,30.36,10.0,SSW,4.6,-,N/A,,Clear,200,2013-01-04 06:55:00
1:55 AM,9.1,6.8,90,30.34,10.0,Calm,Calm,-,N/A,,Clear,0,2013-01-04 07:55:00
2:55 AM,12.6,10.2,90,30.34,10.0,Calm,Calm,-,N/A,,Clear,0,2013-01-04 08:55:00
3:55 AM,10.2,8.8,94,30.33,10.0,Calm,Calm,-,N/A,,Clear,0,2013-01-04 09:55:00
4:55 AM,8.6,5.9,89,30.32,10.0,Calm,Calm,-,N/A,,Clear,0,2013-01-04 10:55:00
5:55 AM,7.9,5.4,89,30.31,10.0,Calm,Calm,-,N/A,,Clear,0,2013-01-04 11:55:00
6:55 AM,7.9,5.4,89,30.31,10.0,East,3.5,-,N/A,,Clear,90,2013-01-04 12:55:00
7:55 AM,9.7,7.0,89,30.30,10.0,Calm,Calm,-,N/A,,Clear,0,2013-01-04 13:55:00
8:55 AM,12.4,10.0,90,30.31,10.0,ESE,3.5,-,N/A,,Clear,120,2013-01-04 14:55:00
9:55 AM,19.0,15.6,87,30.31,10.0,Calm,Calm,-,N/A,,Clear,0,2013-01-04 15:55:00
10:55 AM,24.1,15.6,70,30.32,10.0,South,4.6,-,N/A,,Clear,180,2013-01-04 16:55:00
11:55 AM,28.6,18.1,65,30.30,10.0,SW,5.8,-,N/A,,Clear,220,2013-01-04 17:55:00
12:55 PM,31.8,19.6,61,30.26,10.0,SW,8.1,-,N/A,,Clear,220,2013-01-04 18:55:00
1:55 PM,34.9,19.8,54,30.24,10.0,SW,8.1,-,N/A,,Clear,220,2013-01-04 19:55:00
2:55 PM,36.1,19.9,52,30.22,10.0,SSW,6.9,-,N/A,,Clear,210,2013-01-04 20:55:00
3:55 PM,35.1,22.8,61,30.22,10.0,South,5.8,-,N/A,,Clear,180,2013-01-04 21:55:00
4:55 PM,31.6,21.6,66,30.24,10.0,South,9.2,-,N/A,,Clear,170,2013-01-04 22:55:00
5:55 PM,28.4,19.6,70,30.24,10.0,South,3.5,-,N/A,,Clear,170,2013-01-04 23:55:00
6:55 PM,25.7,18.7,75,30.25,10.0,South,3.5,-,N/A,,Clear,170,2013-01-05 00:55:00
7:55 PM,22.6,16.7,78,30.25,10.0,SSE,3.5,-,N/A,,Clear,160,2013-01-05 01:55:00
8:55 PM,22.5,17.8,82,30.23,10.0,South,4.6,-,N/A,,Clear,190,2013-01-05 02:55:00
9:55 PM,16.0,13.1,88,30.22,10.0,Calm,Calm,-,N/A,,Clear,0,2013-01-05 03:55:00
10:55 PM,15.3,12.2,88,30.21,10.0,Calm,Calm,-,N/A,,Clear,0,2013-01-05 04:55:00
11:55 PM,14.7,12.9,93,30.19,10.0,SE,3.5,-,N/A,,Clear,130,2013-01-05 05:55:00